[[{"header":{"parameterUnit":"m.s-1","parameterCategory":1,"la1":30.2991,"la2":30.254,"lo1":-89.0895,"lo2":-89.0444,"dy":0.0017,"dx":0.0017,"nx":28,"ny":28,"refTime":"2024-10-08T21:00:00:Z","depth":0,"parameterNumber":2,"parameterNumberName":"U-component_of_WINDS"},"data":[0,0,0,0,0,0,0,0,0,0,0,0,0,0,0,0,0,0,0,0,0,0,0,0,0,0,0,0,0,0,0,0,0,0,0,0,0,0,0,0,0,0,0,0,0,0,0,0,0,0,0,0,0,0,0,0,0,0,-1.7668,-1.7669,0,-1.7756,-1.7757,-1.7758,-1.7701,-1.7698,-1.7696,-1.7693,-1.7785,-1.779,-1.7795,0,0,0,0,0,0,0,0,0,0,0,0,0,-1.7451,-1.7455,-1.7668,-1.7669,-1.767,-1.7756,-1.7757,-1.7758,-1.7701,-1.7698,-1.7695,-1.7692,-1.7783,-1.7789,-1.7795,0,0,0,0,0,0,0,0,0,0,0,0,0,-1.7543,-1.7456,-1.7668,-1.7652,-1.7651,-1.7756,-1.7757,-1.7759,-1.7702,-1.7698,-1.7694,-1.769,-1.7781,-1.7789,-1.7796,-1.7921,0,0,-1.7818,-1.7822,0,0,0,0,0,0,0,0,-1.7538,-1.7551,-1.7653,-1.7653,-1.7653,-1.7713,-1.7714,-1.7813,-1.7703,-1.7683,-1.7693,-1.7688,-1.7764,-1.7773,-1.7798,-1.7925,-1.7929,-1.7819,-1.7824,-1.7827,-1.7829,0,0,0,0,0,0,0,-1.7531,-1.7547,-1.7703,-1.7655,-1.7654,-1.7641,-1.7649,-1.7733,-1.7745,-1.7684,-1.768,-1.7691,-1.7764,-1.7791,-1.78,-1.7931,-1.7819,-1.7825,-1.783,-1.7833,-1.8166,-1.817,0,0,0,0,0,0,-1.7526,-1.7542,-1.77,-1.7705,-1.7584,-1.7648,-1.7657,-1.7698,-1.7744,-1.7747,-1.7695,-1.7688,-1.7781,-1.7791,-1.7803,-1.7954,-1.7827,-1.7834,-1.7838,-1.8161,-1.8167,-1.8171,0,0,0,0,0,0,-1.7522,-1.7541,-1.7696,-1.7623,-1.7641,-1.7656,-1.7702,-1.7702,-1.7729,-1.7752,-1.7754,-1.7721,-1.7778,-1.7793,-1.7892,-1.7956,-1.7837,-1.7844,-1.8156,-1.8163,-1.8169,-1.8256,0,0,0,0,0,0,-1.7516,-1.7539,-1.7587,-1.7624,-1.7645,-1.7784,-1.7706,-1.7706,-1.7742,-1.7735,-1.7777,-1.778,-1.7776,-1.7882,-1.79,-1.7964,-1.7849,-1.815,-1.8159,-1.8167,-1.8247,-1.8265,-1.8279,0,0,0,0,0,-1.7508,-1.7608,-1.759,-1.7609,-1.7705,-1.7788,-1.78,-1.7793,-1.7747,-1.7796,-1.781,-1.7779,-1.7946,-1.7892,-1.7912,-1.798,-1.8146,-1.8157,-1.8166,-1.824,-1.8261,-1.8279,0,0,0,0,0,0,-1.7579,-1.7613,-1.7593,-1.7708,-1.7745,-1.7778,-1.7839,-1.7816,-1.7867,-1.7858,-1.7847,-1.7858,-1.7962,-1.798,-1.792,-1.8104,-1.8039,-1.8053,-1.8088,-1.8109,-1.8124,-1.8119,-1.7855,0,0,0,0,0,-1.7608,-1.7672,-1.7698,-1.7797,-1.7817,-1.7825,-1.786,-1.7852,-1.789,-1.7906,-1.7928,-1.7967,-1.8028,-1.8069,-1.8126,-1.8249,-1.8258,-1.8305,-1.8321,-1.8334,-1.8347,-1.8415,-1.8436,-1.8204,-1.8204,-1.8204,0,0,-1.7669,-1.7695,-1.7736,-1.7812,-1.784,-1.7907,-1.7839,-1.7912,-1.7962,-1.7917,-1.8013,-1.803,-1.8073,-1.8185,-1.8235,-1.8204,-1.8413,-1.8347,-1.8357,-1.8363,-1.8427,-1.8449,-1.8469,-1.8211,-1.8209,-1.8208,0,0,-1.7814,-1.784,-1.7926,-1.7955,-1.7998,-1.8003,-1.8023,-1.806,-1.8069,-1.8165,-1.8133,-1.8191,-1.8297,-1.8329,-1.836,-1.8516,-1.849,-1.8535,-1.862,-1.8685,-1.8704,-1.872,-1.8778,-1.8798,-1.8548,-1.8548,-1.8548,0,-1.7885,-1.7984,-1.7973,-1.805,-1.8084,-1.8045,-1.8133,-1.8162,-1.8222,-1.8247,-1.821,-1.8342,-1.8368,-1.8487,-1.8525,-1.855,-1.8575,-1.8532,-1.8702,-1.8718,-1.8733,-1.8788,-1.881,-1.8553,-1.8553,-1.8552,-1.8552,0,-1.807,-1.8139,-1.8203,-1.8262,-1.8303,-1.8385,-1.8386,-1.843,-1.8417,-1.8425,-1.8523,-1.8553,-1.8616,-1.8643,-1.8631,-1.8761,-1.874,-1.8703,-1.8638,-1.8761,-1.8812,-1.8833,-1.8561,-1.8559,-1.8558,-1.8556,0,0,-1.8265,-1.8315,-1.8339,-1.8366,-1.841,-1.8464,-1.8543,-1.8604,-1.8643,-1.8685,-1.8752,-1.8842,-1.8807,-1.8842,-1.8833,-1.889,-1.9014,-1.8846,-1.8847,-1.8878,-1.9161,-1.9191,-1.9215,-1.8996,-1.9,-1.9003,-1.9158,0,-1.8414,-1.8554,-1.8545,-1.8676,-1.8741,-1.8704,-1.8774,-1.8809,-1.8818,-1.8875,-1.8885,-1.895,-1.8898,-1.8919,-1.8974,-1.8988,-1.9072,-1.8976,-1.906,-1.9063,-1.9053,-1.9242,-1.9274,-1.9419,-1.9178,-1.9181,-1.9184,0,-1.8608,-1.8657,-1.8795,-1.8829,-1.8856,-1.8919,-1.8975,-1.9028,-1.9067,-1.907,-1.9108,-1.909,-1.9171,-1.9102,-1.9214,-1.9149,-1.9182,-1.9194,-1.92,-1.9209,-1.9133,-1.9259,-1.9465,-1.9487,-1.9215,-1.9212,-1.921,0,-1.8739,-1.8839,-1.8934,-1.8958,-1.9,-1.9045,-1.9065,-1.91,-1.9137,-1.9186,-1.921,-1.9267,-1.9299,-1.9344,-1.9342,-1.9292,-1.9456,-1.9387,-1.9462,-1.9463,-1.9501,-1.9499,-1.9717,-1.9518,-1.9518,-1.9518,-1.9517,0,-1.8909,-1.8995,-1.8994,-1.9053,-1.9148,-1.9137,-1.9232,-1.9247,-1.9278,-1.934,-1.931,-1.9369,-1.9361,-1.942,-1.9418,-1.9512,-1.9526,-1.9532,-1.9531,-1.9536,-1.9536,-1.956,-1.9551,-1.9523,-1.9522,-1.9521,-1.952,0,-1.9073,-1.9075,-1.9177,-1.9209,-1.9218,-1.9288,-1.9315,-1.9371,-1.9377,-1.9455,-1.9473,-1.9483,-1.9551,-1.9552,-1.963,-1.9629,-1.9744,-1.9731,-1.9732,-1.973,-1.9806,-1.98,-2.005,-2.0082,-1.986,-1.9862,-1.9864,0,-1.9182,-1.9248,-1.9286,-1.9325,-1.9347,-1.941,-1.9448,-1.9439,-1.948,-1.9529,-1.958,-1.9644,-1.9696,-1.9806,-1.9821,-1.988,-1.9869,-1.9952,-1.9878,-1.9881,-1.9873,-1.987,-1.9877,-1.9968,-1.997,-1.9972,-1.9974,0,-1.9377,-1.9374,-1.943,-1.9487,-1.9533,-1.9577,-1.9618,-1.9651,-1.9647,-1.9694,-1.9763,-1.9803,-1.9882,-1.9947,-2.0004,-2.0025,-2.0,-1.9997,-2.0018,-2.0025,-2.0024,-2.0028,-1.9774,-1.9992,-1.999,-1.9989,-1.9988,-1.9987,-1.9518,-1.9575,-1.9611,-1.9674,-1.9703,-1.9742,-1.9797,-1.9809,-1.9866,-1.993,-1.9921,-1.9998,-2.0034,-2.0109,-2.0134,-2.0194,-2.0165,-2.0195,-2.0203,-2.0212,-2.0221,-2.0012,-2.0204,-2.0204,-2.0203,-2.0203,-2.0202,0,-1.9713,-1.9734,-1.9792,-1.985,-1.99,-1.987,-1.9913,-1.9957,-2.0025,-2.0061,-2.0112,-2.0191,-2.0254,-2.0273,-2.0334,-2.0379,-2.0369,-2.0396,-2.0394,-2.0399,-2.0242,-2.0219,-2.0403,-2.0403,-2.0403,-2.0403,-2.0402,-2.0402,-1.982,-1.9915,-1.9917,-2.0027,-2.0047,-2.0122,-2.0149,-2.0185,-2.0214,-2.0304,-2.0355,-2.0367,-2.0397,-2.0459,-2.0516,-2.052,-2.0545,-2.0576,-2.0576,-2.043,-2.041,-2.0391,-2.0369,-2.0581,-2.0581,-2.0728,-2.0729,-2.073]},{"header":{"parameterUnit":"m.s-1","parameterCategory":1,"la1":30.2991,"la2":30.254,"lo1":-89.0895,"lo2":-89.0444,"dy":0.0017,"dx":0.0017,"nx":28,"ny":28,"refTime":"2024-10-08T21:00:00:Z","depth":0,"parameterNumber":3,"parameterNumberName":"V-component_of_WINDS"},"data":[0,0,0,0,0,0,0,0,0,0,0,0,0,0,0,0,0,0,0,0,0,0,0,0,0,0,0,0,0,0,0,0,0,0,0,0,0,0,0,0,0,0,0,0,0,0,0,0,0,0,0,0,0,0,0,0,0,0,-5.0028,-5.0028,0,-5.004,-5.004,-5.004,-4.9951,-4.9948,-4.9946,-4.9943,-4.9954,-4.9957,-4.9959,0,0,0,0,0,0,0,0,0,0,0,0,0,-4.9924,-4.9926,-5.0028,-5.0028,-5.0028,-5.004,-5.004,-5.004,-4.9951,-4.9948,-4.9945,-4.9942,-4.9953,-4.9956,-4.996,0,0,0,0,0,0,0,0,0,0,0,0,0,-4.9956,-4.9927,-5.0028,-4.9985,-4.9981,-5.004,-5.004,-5.0041,-4.9952,-4.9948,-4.9944,-4.9941,-4.9952,-4.9956,-4.996,-5.006,0,0,-4.9972,-4.9974,0,0,0,0,0,0,0,0,-4.9954,-4.996,-4.9991,-4.9988,-4.9984,-4.999,-5.0008,-5.0047,-4.9953,-4.9963,-4.9943,-4.9939,-4.9969,-4.9971,-4.9982,-5.006,-5.0061,-4.9972,-4.9975,-4.9976,-4.9978,0,0,0,0,0,0,0,-4.9952,-4.9959,-5.0033,-4.9992,-4.9987,-4.9964,-4.9965,-5.0015,-4.9987,-4.9962,-4.9955,-4.9958,-4.9966,-4.9978,-4.9981,-5.0061,-4.9972,-4.9976,-4.9978,-4.998,-5.022,-5.0224,0,0,0,0,0,0,-4.9956,-4.9958,-5.0032,-5.0033,-4.996,-4.9969,-4.997,-4.9992,-4.9986,-4.9982,-4.9961,-4.9954,-4.9973,-4.9977,-4.9982,-5.0097,-4.9976,-4.998,-4.9982,-5.0216,-5.0221,-5.0225,0,0,0,0,0,0,-4.9954,-4.9964,-5.0032,-4.9994,-5.0,-4.9975,-5.0001,-4.9994,-5.0006,-4.9986,-4.998,-4.9979,-4.9971,-4.9976,-5.0041,-5.0096,-4.9982,-4.9986,-5.0212,-5.0218,-5.0223,-5.0329,0,0,0,0,0,0,-4.9952,-4.9963,-5.0002,-4.9995,-5.0003,-5.0092,-5.0004,-4.9997,-5.0013,-5.0004,-5.0001,-4.9997,-4.9968,-5.0035,-5.0045,-5.0099,-4.9989,-5.0206,-5.0214,-5.0221,-5.0321,-5.0338,-5.0353,0,0,0,0,0,-4.9948,-5.0031,-5.0004,-5.0014,-5.0051,-5.0095,-5.01,-5.0066,-5.0018,-5.0056,-5.0043,-4.9997,-5.0089,-5.0043,-5.0053,-5.0109,-5.0203,-5.0212,-5.0221,-5.0314,-5.0335,-5.0353,0,0,0,0,0,0,-5.0045,-5.003,-5.0,-5.0083,-5.0091,-5.008,-5.0127,-5.0089,-5.0111,-5.0101,-5.0057,-5.0057,-5.0129,-5.0125,-5.0075,-5.0205,-5.0137,-5.0149,-5.0204,-5.0225,-5.024,-5.0239,-4.9992,0,0,0,0,0,-5.0076,-5.0114,-5.0098,-5.0174,-5.0179,-5.0153,-5.0171,-5.0144,-5.015,-5.0153,-5.0145,-5.0152,-5.0182,-5.0203,-5.023,-5.032,-5.0317,-5.0364,-5.038,-5.0393,-5.0404,-5.045,-5.047,-5.0255,-5.0255,-5.0255,0,0,-5.014,-5.0136,-5.0163,-5.0193,-5.0196,-5.0236,-5.0156,-5.0202,-5.023,-5.016,-5.022,-5.0215,-5.022,-5.0297,-5.0331,-5.0297,-5.0462,-5.0405,-5.0416,-5.0419,-5.0461,-5.0481,-5.0499,-5.0261,-5.026,-5.0259,0,0,-5.0277,-5.0279,-5.0341,-5.0346,-5.0352,-5.0334,-5.0349,-5.0343,-5.0337,-5.0397,-5.0344,-5.0378,-5.0431,-5.0437,-5.0447,-5.0586,-5.0544,-5.0596,-5.068,-5.0725,-5.0742,-5.0757,-5.0806,-5.0824,-5.0606,-5.0606,-5.0606,0,-5.0356,-5.0415,-5.0378,-5.0427,-5.0441,-5.0379,-5.0441,-5.0447,-5.0462,-5.0472,-5.0434,-5.0499,-5.0498,-5.0576,-5.061,-5.062,-5.0635,-5.0595,-5.0743,-5.0757,-5.0771,-5.0816,-5.0835,-5.0612,-5.0612,-5.0611,-5.061,0,-5.0511,-5.0553,-5.0602,-5.0618,-5.0637,-5.0692,-5.0663,-5.0687,-5.0658,-5.0643,-5.0705,-5.0702,-5.0727,-5.0743,-5.0716,-5.0817,-5.0795,-5.0751,-5.0682,-5.0798,-5.084,-5.0857,-5.0621,-5.0619,-5.0617,-5.0616,0,0,-5.071,-5.0704,-5.0722,-5.0728,-5.073,-5.076,-5.0813,-5.0837,-5.0858,-5.087,-5.0912,-5.0958,-5.0917,-5.0928,-5.0901,-5.0941,-5.105,-5.0891,-5.0891,-5.092,-5.116,-5.1192,-5.1213,-5.1022,-5.1025,-5.1028,-5.1159,0,-5.0843,-5.0932,-5.0899,-5.099,-5.1027,-5.0969,-5.1014,-5.1019,-5.1007,-5.1036,-5.1022,-5.1055,-5.0999,-5.1005,-5.1042,-5.1029,-5.1097,-5.1019,-5.106,-5.1062,-5.1059,-5.1235,-5.127,-5.1394,-5.1175,-5.1178,-5.118,0,-5.101,-5.1029,-5.1124,-5.1118,-5.1132,-5.1173,-5.1192,-5.1221,-5.1226,-5.1214,-5.1227,-5.119,-5.124,-5.1172,-5.1239,-5.1187,-5.1201,-5.1197,-5.1201,-5.1203,-5.1127,-5.1241,-5.1432,-5.1451,-5.1206,-5.1204,-5.1202,0,-5.1144,-5.1193,-5.1255,-5.1262,-5.1258,-5.1288,-5.1287,-5.1288,-5.1304,-5.1321,-5.1331,-5.1354,-5.1366,-5.1384,-5.1354,-5.1307,-5.1425,-5.1355,-5.1416,-5.1417,-5.1442,-5.1441,-5.1638,-5.1454,-5.1454,-5.1453,-5.1453,0,-5.1296,-5.1356,-5.1315,-5.1354,-5.1419,-5.1381,-5.1446,-5.1438,-5.144,-5.1475,-5.1426,-5.146,-5.1419,-5.1449,-5.1426,-5.1484,-5.149,-5.1482,-5.1475,-5.1485,-5.1487,-5.1494,-5.1484,-5.1458,-5.1457,-5.1456,-5.1455,0,-5.1456,-5.1432,-5.1496,-5.1486,-5.1485,-5.1533,-5.1524,-5.1559,-5.1543,-5.1588,-5.1596,-5.1571,-5.1604,-5.1576,-5.1608,-5.1592,-5.167,-5.1651,-5.1668,-5.1663,-5.1725,-5.1719,-5.1933,-5.1958,-5.1759,-5.1761,-5.1763,0,-5.1554,-5.1599,-5.1594,-5.1614,-5.1616,-5.165,-5.1666,-5.163,-5.1649,-5.1657,-5.1691,-5.1719,-5.174,-5.1795,-5.1779,-5.1803,-5.1783,-5.1857,-5.1787,-5.1796,-5.1783,-5.1781,-5.1784,-5.1871,-5.1873,-5.1875,-5.1877,0,-5.173,-5.1716,-5.1742,-5.1764,-5.1785,-5.18,-5.1811,-5.1831,-5.1794,-5.1817,-5.185,-5.1866,-5.1898,-5.1927,-5.1946,-5.1944,-5.1904,-5.1899,-5.1914,-5.1925,-5.1933,-5.1928,-5.1706,-5.1894,-5.1892,-5.1891,-5.189,-5.1889,-5.1862,-5.1898,-5.19,-5.193,-5.1935,-5.1947,-5.1978,-5.1966,-5.1993,-5.2016,-5.1993,-5.2033,-5.2035,-5.2056,-5.2059,-5.2089,-5.2058,-5.2081,-5.2086,-5.2092,-5.21,-5.1929,-5.2092,-5.2092,-5.2091,-5.2091,-5.209,0,-5.2034,-5.2032,-5.2061,-5.2078,-5.2102,-5.2063,-5.2073,-5.2095,-5.213,-5.2136,-5.2158,-5.2195,-5.2222,-5.2209,-5.2232,-5.2259,-5.2241,-5.2266,-5.2263,-5.2263,-5.2127,-5.2111,-5.228,-5.228,-5.228,-5.228,-5.228,-5.228,-5.2127,-5.2186,-5.2172,-5.2232,-5.223,-5.2268,-5.2277,-5.2287,-5.2292,-5.2335,-5.2358,-5.2349,-5.2347,-5.237,-5.2393,-5.2388,-5.2398,-5.243,-5.2419,-5.2292,-5.2273,-5.2255,-5.224,-5.2433,-5.2433,-5.2552,-5.2553,-5.2554]}]]